Date,TemperatureHighF,TemperatureAvgF,TemperatureLowF,DewpointHighF,DewpointAvgF,DewpointLowF,HumidityHigh,HumidityAvg,HumidityLow,PressureMaxIn,PressureMinIn,WindSpeedMaxMPH,WindSpeedAvgMPH,GustSpeedMaxMPH,PrecipitationSumIn
2013-1-1,36.7,33.1,25.0,29.5,23.4,14.7,77,67,54,29.99,29.85,7,2,0,0.04
2013-1-2,30.4,26.0,21.0,16.4,14.8,13.3,74,62,53,30.17,29.97,5,2,0,0.00
2013-1-3,32.4,23.0,10.8,21.8,14.8,7.7,89,71,50,30.18,30.03,4,1,0,0.00
2013-1-4,35.2,32.0,28.9,23.2,20.8,17.9,70,63,55,30.06,29.94,8,4,0,0.00
2013-1-5,39.4,31.0,25.2,24.3,21.7,17.8,85,69,53,30.32,30.03,5,2,0,0.00
2013-1-6,41.9,32.6,27.0,28.8,25.5,21.8,89,76,54,30.12,29.91,2,0,0,0.00
2013-1-7,43.3,34.3,21.9,30.7,26.6,19.9,92,75,50,30.32,30.03,4,1,0,0.00
2013-1-8,40.8,26.5,16.5,27.7,21.6,13.8,93,83,59,30.32,30.26,4,0,0,0.00
2013-1-9,34.7,25.5,18.9,27.9,22.4,16.6,94,88,75,30.30,30.07,3,1,0,0.00
2013-1-10,45.7,31.3,21.0,28.3,24.4,18.7,92,77,49,30.49,30.23,4,1,0,0.00
2013-1-11,43.2,35.4,29.3,35.7,30.9,25.9,94,84,62,30.39,29.99,3,0,0,0.36
2013-1-12,42.3,37.6,34.7,39.5,36.0,33.2,95,94,89,30.06,29.99,3,0,0,0.02
2013-1-13,45.3,41.0,36.9,44.2,40.0,35.6,96,96,95,30.01,29.84,2,0,0,0.02
2013-1-14,49.3,43.8,36.3,44.8,35.6,25.8,96,75,49,30.23,29.82,6,1,0,0.18
2013-1-15,37.6,32.9,25.7,27.4,24.1,21.9,87,70,57,30.28,30.09,3,1,0,0.00
2013-1-16,34.3,31.8,29.8,31.2,29.4,27.4,95,91,85,30.08,29.76,2,0,0,0.00
2013-1-17,40.1,33.3,29.1,31.6,29.0,26.3,95,85,67,30.01,29.84,3,0,0,0.05
2013-1-18,31.1,25.4,19.9,25.7,13.1,7.3,80,60,41,30.35,29.93,7,2,0,0.00
2013-1-19,46.0,33.1,19.6,29.4,21.9,13.0,81,64,43,30.21,29.71,5,1,0,0.00
2013-1-20,47.3,36.4,22.8,29.7,19.5,8.8,68,51,34,29.98,29.57,11,4,0,0.00
2013-1-21,28.2,23.8,18.7,22.2,14.3,8.0,89,67,52,29.97,29.75,5,1,0,0.00
2013-1-22,18.0,12.9,6.3,8.3,-0.3,-6.8,82,56,40,30.13,29.78,7,4,0,0.00
2013-1-23,18.9,8.1,-2.7,6.4,-0.5,-6.8,83,69,47,30.17,30.04,9,2,0,0.00
2013-1-24,24.1,13.7,4.3,6.7,2.0,-0.5,81,61,36,30.39,30.01,8,2,0,0.00
2013-1-25,21.9,12.5,4.1,11.7,5.6,-0.7,88,74,50,30.38,29.94,3,1,0,0.00
2013-1-26,27.1,15.8,6.4,13.0,8.2,2.9,87,73,51,30.31,29.97,5,1,0,0.00
2013-1-27,33.4,17.7,2.5,15.9,9.2,-1.3,86,71,45,30.48,30.31,4,1,0,0.00
2013-1-28,32.5,28.5,19.4,30.9,25.1,13.6,94,87,74,30.34,29.90,5,0,0,0.04
2013-1-29,37.0,34.8,32.2,35.1,33.3,30.7,96,94,90,30.01,29.84,3,0,0,0.17
2013-1-30,52.3,39.8,32.9,51.2,38.7,31.9,96,96,96,29.84,29.17,3,0,0,0.66
2013-1-31,47.7,33.4,24.4,44.3,20.2,11.0,88,58,45,29.67,28.98,12,6,0,0.38
2013-2-1,26.1,23.1,17.4,17.1,10.2,5.3,79,57,45,30.17,29.65,10,4,0,0.00
2013-2-2,23.9,18.8,12.4,16.4,8.6,3.9,83,64,51,30.19,29.89,7,2,0,0.00
2013-2-3,30.2,24.6,19.2,22.0,18.2,10.8,86,77,63,29.89,29.66,6,1,0,0.00
2013-2-4,28.2,23.7,18.3,20.3,11.9,7.0,84,61,47,29.91,29.78,6,2,0,0.00
2013-2-5,33.3,28.0,23.5,26.0,22.9,19.7,88,81,67,29.83,29.73,2,0,0,0.00
2013-2-6,38.8,28.8,20.1,25.4,19.6,12.5,91,71,41,30.25,29.80,6,1,0,0.02
2013-2-7,37.4,27.1,16.3,20.7,15.9,11.7,83,64,46,30.35,30.12,5,1,0,0.00
2013-2-8,38.7,32.8,24.8,32.6,27.1,19.5,93,80,63,30.12,29.65,8,1,0,0.02
2013-2-9,31.5,23.9,14.7,18.7,14.9,10.5,83,69,55,30.31,29.82,9,3,0,0.00
2013-2-10,37.4,23.5,7.7,20.6,13.1,3.8,88,66,45,30.38,30.08,4,1,0,0.00
2013-2-11,40.1,36.0,32.9,36.9,30.6,18.5,94,82,53,30.07,29.54,7,1,0,0.20
2013-2-12,39.2,36.1,26.1,26.0,24.5,21.5,83,63,54,29.89,29.66,7,3,0,0.00
2013-2-13,42.6,30.8,21.0,30.1,24.5,17.8,91,78,55,29.85,29.57,3,0,0,0.00
2013-2-14,43.3,33.9,26.2,30.3,27.8,24.2,94,79,58,29.87,29.62,4,1,0,0.04
2013-2-15,47.5,39.2,31.6,29.9,27.4,25.0,79,63,43,29.89,29.79,8,2,0,0.01
2013-2-16,36.3,30.5,25.2,24.8,17.1,11.9,81,58,41,29.90,29.74,5,1,0,0.00
2013-2-17,27.9,22.6,17.2,14.2,8.2,1.6,69,54,37,30.03,29.72,12,4,0,0.00
2013-2-18,36.7,24.4,14.0,14.3,8.8,4.1,67,52,35,30.22,29.98,5,2,0,0.00
2013-2-19,35.2,30.0,21.0,31.6,22.7,13.5,90,74,52,29.97,29.56,7,1,0,0.07
2013-2-20,29.1,25.0,21.6,17.2,13.1,10.2,70,60,52,29.97,29.69,11,4,0,0.00
2013-2-21,37.2,26.8,22.3,18.4,14.9,12.2,72,61,46,30.26,29.95,9,3,0,0.00
2013-2-22,35.6,28.6,21.0,24.4,19.6,14.7,77,69,57,30.30,30.08,5,1,0,0.00
2013-2-23,36.1,34.0,32.4,33.0,30.5,24.4,94,87,72,30.09,29.76,5,0,0,0.05
2013-2-24,37.6,34.1,31.1,33.0,25.6,19.2,94,72,50,29.96,29.73,8,3,0,0.00
2013-2-25,46.6,34.3,25.5,26.8,22.7,19.6,83,64,40,30.14,29.96,5,2,0,0.00
2013-2-26,43.7,34.5,22.1,31.7,27.0,18.8,90,75,53,30.15,29.69,5,2,0,0.27
2013-2-27,39.0,35.7,33.4,35.2,33.6,31.0,94,92,85,29.67,29.46,3,0,0,0.73
2013-2-28,44.1,36.8,31.3,34.8,31.3,28.4,95,81,54,29.57,29.47,5,1,0,0.02
2013-3-1,41.2,36.3,30.9,30.2,26.6,21.1,82,68,54,29.78,29.57,7,2,0,0.01
2013-3-2,38.8,32.1,27.7,22.4,20.8,18.4,70,63,50,29.78,29.69,8,3,0,0.00
2013-3-3,35.6,29.9,26.2,21.6,18.5,16.5,72,62,49,29.77,29.67,7,3,0,0.00
2013-3-4,36.9,30.5,25.3,21.9,18.7,14.1,72,61,51,29.93,29.76,8,4,0,0.00
2013-3-5,48.2,33.6,27.5,26.2,22.6,20.8,77,65,42,29.99,29.80,5,2,0,0.00
2013-3-6,43.9,39.0,28.8,30.2,27.5,22.5,77,63,56,29.97,29.74,7,3,0,0.00
2013-3-7,45.0,38.7,32.0,27.2,24.2,21.2,65,56,44,30.10,29.96,9,3,0,0.00
2013-3-8,45.3,36.9,30.6,26.0,22.9,20.5,70,57,46,30.25,30.07,9,3,0,0.00
2013-3-9,63.3,39.4,26.1,28.0,23.9,19.7,79,57,25,30.29,30.16,4,1,0,0.00
2013-3-10,64.0,43.7,25.3,29.4,24.6,20.2,82,52,27,30.22,30.07,6,1,0,0.00
2013-3-11,58.5,48.7,38.7,46.9,36.0,28.8,82,62,42,30.10,29.77,4,2,0,0.00
2013-3-12,52.2,47.7,40.6,48.8,41.4,27.8,94,79,59,29.83,29.66,6,2,0,0.69
2013-3-13,46.4,37.4,29.7,30.0,25.2,16.4,78,61,44,29.88,29.74,11,3,0,0.00
2013-3-14,40.6,32.5,27.0,19.3,14.8,10.9,72,49,30,29.97,29.86,13,5,0,0.00
2013-3-15,46.6,34.8,21.6,30.5,22.6,13.7,76,61,52,29.98,29.64,9,2,0,0.00
2013-3-16,39.2,33.1,29.3,28.5,25.6,21.5,89,74,58,29.85,29.65,5,1,0,0.00
2013-3-17,39.9,32.4,26.6,27.4,21.5,17.8,90,65,45,30.21,29.84,5,1,0,0.12
2013-3-18,32.9,28.0,20.8,27.5,19.8,13.9,91,72,46,30.25,29.82,8,1,0,0.00
2013-3-19,47.5,36.6,29.3,35.0,28.5,17.7,94,74,45,29.81,29.58,9,2,0,0.28
2013-3-20,42.8,34.3,28.6,23.9,19.8,17.2,72,56,37,29.81,29.68,11,3,0,0.00
2013-3-21,34.9,28.3,19.2,19.7,14.2,9.2,78,56,39,29.75,29.61,8,3,0,0.00
2013-3-22,40.8,32.3,23.9,21.8,19.2,16.6,77,59,44,29.87,29.68,9,4,0,0.00
2013-3-23,46.0,36.1,29.5,23.1,20.5,18.0,68,54,37,29.90,29.82,8,3,0,0.00
2013-3-24,48.0,38.1,27.0,23.9,21.3,18.3,72,52,34,29.89,29.57,5,2,0,0.00
2013-3-25,39.4,35.9,33.3,32.8,28.9,23.3,91,76,56,29.57,29.43,5,1,0,0.28
2013-3-26,51.6,40.7,32.9,34.3,29.1,26.8,89,65,40,29.84,29.57,7,2,0,0.01
2013-3-27,50.0,39.9,31.5,30.1,27.2,24.4,76,61,38,29.97,29.83,7,2,0,0.00
2013-3-28,49.5,41.0,34.7,29.7,27.6,25.6,79,60,39,30.11,29.93,6,2,0,0.00
2013-3-29,52.0,43.3,34.2,33.3,29.2,26.1,72,58,38,30.12,30.02,7,2,0,0.00
2013-3-30,61.9,41.2,26.4,29.1,24.1,20.6,85,56,22,30.13,29.98,6,2,0,0.00
2013-3-31,49.5,39.7,28.4,44.1,33.4,21.2,94,79,53,30.01,29.61,6,0,0,0.35
2013-4-1,49.5,42.4,31.3,42.7,29.7,12.5,95,66,28,29.87,29.57,10,3,0,0.02
2013-4-2,43.7,34.1,27.3,19.0,14.2,10.7,68,45,28,30.05,29.85,10,3,0,0.00
2013-4-3,45.0,33.2,21.6,18.9,14.4,10.5,76,48,27,30.30,30.04,8,3,0,0.00
2013-4-4,54.1,38.0,22.3,22.5,17.3,14.1,73,46,24,30.33,29.94,5,2,0,0.00
2013-4-5,59.7,42.8,27.9,26.0,20.9,15.7,72,44,20,29.99,29.72,7,2,0,0.00
2013-4-6,57.7,41.4,28.6,23.3,17.2,13.6,57,40,19,30.24,30.00,6,2,0,0.00
2013-4-7,69.3,53.7,37.9,43.4,31.5,19.2,69,43,35,30.12,29.80,8,2,0,0.00
2013-4-8,76.3,59.0,38.7,48.8,42.5,34.3,84,57,33,30.00,29.78,4,1,0,0.00
2013-4-9,84.4,70.1,56.3,52.2,47.3,41.8,72,47,26,29.93,29.73,6,2,0,0.00
2013-4-10,84.0,67.5,59.5,63.7,55.8,49.5,96,69,44,29.82,29.65,7,2,0,1.16
2013-4-11,59.4,51.4,47.7,58.5,46.4,42.0,97,83,74,29.86,29.70,5,2,0,0.04
2013-4-12,50.0,47.3,43.9,46.4,44.0,40.9,96,88,75,29.78,29.55,5,2,0,0.77
2013-4-13,55.4,47.7,38.3,46.3,36.6,33.5,95,66,49,29.85,29.69,6,2,0,0.00
2013-4-14,62.2,48.9,38.5,38.0,32.2,26.9,70,54,32,30.05,29.85,8,3,0,0.00
2013-4-15,68.9,54.9,42.8,48.5,40.5,32.8,73,59,47,30.16,30.04,5,2,0,0.00
2013-4-16,69.8,59.4,53.2,58.2,50.3,43.8,92,72,60,30.16,29.95,5,1,0,0.09
2013-4-17,74.1,58.1,46.4,58.7,41.3,35.5,96,58,26,30.20,30.02,5,2,0,0.09
2013-4-18,61.7,56.8,45.0,55.1,46.6,36.6,82,69,46,30.13,29.86,7,1,0,0.00
2013-4-19,73.4,62.8,48.7,63.9,54.8,40.1,91,76,65,29.86,29.40,14,3,0,0.56
2013-4-20,54.1,46.7,36.3,41.5,29.6,20.5,78,52,36,30.29,29.66,10,4,0,0.00
2013-4-21,60.8,41.7,27.5,30.3,24.1,20.5,79,52,25,30.51,30.30,4,1,0,0.00
2013-4-22,65.7,47.8,33.1,31.8,29.0,26.0,83,52,27,30.50,30.30,8,2,0,0.00
2013-4-23,68.4,50.3,39.6,41.0,36.2,29.5,74,60,36,30.35,29.98,4,1,0,0.00
2013-4-24,73.0,54.3,38.5,58.8,45.8,35.3,95,75,52,29.98,29.59,7,2,0,0.36
2013-4-25,67.6,51.1,41.2,35.9,30.8,27.3,70,48,26,30.16,29.95,5,2,0,0.00
2013-4-26,69.6,52.5,39.9,34.2,29.7,24.3,77,45,20,30.36,30.17,5,2,0,0.00
2013-4-27,76.3,53.2,34.0,38.9,33.1,27.4,81,51,24,30.36,30.14,5,1,0,0.00
2013-4-28,69.8,54.7,38.3,46.8,40.4,33.8,85,62,35,30.17,30.00,7,1,0,0.00
2013-4-29,57.6,54.3,51.4,56.2,48.2,37.1,95,81,53,30.03,29.96,4,1,0,0.23
2013-4-30,70.2,59.7,53.8,55.5,52.2,41.8,93,77,58,30.19,30.03,4,1,0,0.01
2013-5-1,80.8,59.1,39.4,40.8,36.7,31.6,86,50,19,30.32,30.20,5,1,0,0.00
2013-5-2,83.7,59.9,39.4,47.8,42.5,36.1,90,58,27,30.36,30.19,6,1,0,0.00
2013-5-3,79.7,60.2,43.5,46.3,41.7,35.6,90,55,28,30.31,30.14,5,1,0,0.00
2013-5-4,81.7,58.6,37.6,47.3,40.9,33.5,86,56,26,30.24,30.03,4,1,0,0.00
2013-5-5,82.2,59.9,41.4,46.8,38.4,27.9,89,53,16,30.14,29.99,5,1,0,0.00
2013-5-6,80.2,58.7,38.7,54.5,45.6,34.9,87,64,41,30.12,29.96,4,1,0,0.00
2013-5-7,82.6,65.7,47.7,58.6,51.9,44.9,91,64,35,30.02,29.88,4,1,0,0.00
2013-5-8,64.0,60.3,54.7,62.4,57.9,53.6,98,92,70,29.95,29.82,4,0,0,0.71
2013-5-9,70.2,59.0,49.3,62.1,55.6,47.9,97,89,71,29.87,29.79,3,1,0,0.00
2013-5-10,75.7,62.9,55.6,65.3,59.5,53.6,97,89,65,29.91,29.73,4,1,0,0.17
2013-5-11,70.2,63.6,59.4,65.1,57.9,46.4,98,83,58,29.74,29.59,6,2,0,0.35
2013-5-12,59.5,52.6,42.6,47.1,37.8,29.9,86,59,36,29.86,29.62,9,3,0,0.01
2013-5-13,55.2,45.6,37.8,33.9,29.9,26.7,78,56,37,30.05,29.86,7,2,0,0.00
2013-5-14,65.8,48.1,30.4,39.4,30.2,25.6,88,56,22,30.10,29.89,4,1,0,0.00
2013-5-15,79.5,61.5,48.7,60.3,49.5,39.7,86,65,52,29.91,29.52,4,1,0,0.00
2013-5-16,86.0,68.3,52.3,59.6,49.0,40.4,93,58,22,29.82,29.63,7,1,0,0.00
2013-5-17,81.5,61.9,46.9,46.9,42.9,39.9,78,52,27,30.10,29.82,4,1,0,0.01
2013-5-18,70.0,62.3,54.1,54.6,49.6,42.5,76,64,53,30.15,30.08,4,0,0,0.00
2013-5-19,66.7,62.4,58.3,58.8,56.2,51.5,91,80,71,30.14,30.01,3,0,0,0.00
2013-5-20,89.8,70.0,60.1,69.8,62.7,56.9,92,79,52,30.03,29.84,2,0,0,0.00
2013-5-21,92.3,75.9,59.5,73.1,66.4,57.5,93,74,50,29.87,29.66,4,1,0,0.00
2013-5-22,95.5,77.5,65.3,71.7,66.1,61.9,93,71,41,29.76,29.60,7,1,0,0.87
2013-5-23,81.3,68.5,61.9,70.7,64.9,60.2,94,89,68,29.75,29.58,3,1,0,0.20
2013-5-24,61.9,51.6,45.3,60.2,46.0,38.5,94,82,62,30.02,29.60,8,2,0,0.11
2013-5-25,67.6,52.5,42.8,39.1,36.8,34.2,82,58,32,30.03,29.95,7,2,0,0.00
2013-5-26,75.9,57.1,43.7,39.3,36.6,33.1,74,50,24,30.12,29.98,6,2,0,0.00
2013-5-27,76.5,57.9,38.5,46.3,40.2,34.7,87,57,28,30.19,30.02,4,1,0,0.00
2013-5-28,60.3,55.9,52.2,58.3,52.5,46.2,94,89,73,30.09,29.96,2,0,0,0.48
2013-5-29,92.8,70.7,59.2,75.4,64.4,57.5,96,83,47,29.98,29.87,4,0,0,0.43
2013-5-30,96.8,76.4,59.9,70.5,64.4,57.9,94,70,39,30.05,29.95,3,0,0,0.00
2013-5-31,98.8,78.1,64.0,73.2,66.8,61.6,92,71,40,30.02,29.84,2,0,0,0.00
2013-6-1,94.6,78.6,64.6,70.3,66.4,61.3,90,69,45,29.89,29.72,5,1,0,0.00
2013-6-2,88.9,78.1,70.5,71.3,66.0,58.8,85,68,47,29.72,29.62,6,1,0,0.00
2013-6-3,83.5,70.6,59.0,62.3,57.6,43.8,86,65,42,29.87,29.69,4,1,0,0.00
2013-6-4,84.7,64.0,48.2,47.7,43.7,39.9,84,51,23,30.05,29.88,5,1,0,0.00
2013-6-5,86.5,65.1,46.9,53.2,47.3,42.1,87,57,29,30.14,29.93,4,1,0,0.00
2013-6-6,67.8,64.1,60.4,58.8,53.5,49.4,90,69,55,29.97,29.87,3,0,0,0.11
2013-6-8,79.0,69.2,58.3,60.9,57.7,55.4,90,68,52,30.01,29.87,3,1,0,0.00
2013-6-9,88.7,67.9,52.7,62.3,56.7,50.4,93,71,36,30.12,30.00,5,0,0,0.00
2013-6-10,69.6,66.5,64.2,67.8,63.8,59.7,96,91,80,30.03,29.64,3,0,0,0.86
2013-6-11,80.6,67.5,61.7,70.0,60.8,-99.9,97,84,62,29.71,29.60,5,-21,0,0.12
2013-6-12,90.3,72.6,63.0,61.7,59.2,56.1,90,66,35,29.78,29.69,4,1,0,0.00
2013-6-13,74.5,65.4,58.3,71.1,62.8,56.6,95,92,82,29.70,29.31,5,1,0,0.88
2013-6-14,81.5,67.5,57.7,58.8,56.9,55.3,95,72,43,29.87,29.56,5,1,0,0.00
2013-6-15,86.4,68.1,53.6,60.7,55.9,51.6,93,69,35,29.95,29.85,4,1,0,0.00
2013-6-16,85.8,68.6,58.1,66.1,60.7,54.9,90,77,52,29.91,29.69,6,1,0,0.00
2013-6-17,90.1,73.7,63.0,67.9,61.9,56.6,93,71,33,29.84,29.73,5,1,0,0.00
2013-6-18,82.0,69.3,59.9,66.9,60.7,50.8,92,75,55,29.85,29.72,4,1,0,0.00
2013-6-19,88.7,68.0,55.9,53.7,49.6,45.2,80,55,24,30.08,29.85,4,1,0,0.00
2013-6-20,86.5,68.4,49.3,61.3,55.2,46.5,91,66,40,30.17,30.08,3,1,0,0.00
2013-6-21,88.7,72.7,59.7,65.3,61.3,56.5,90,69,45,30.18,30.08,4,0,0,0.00
2013-6-22,91.2,75.0,58.5,68.7,62.5,55.0,88,67,46,30.13,29.95,3,1,0,0.00
2013-6-23,96.4,79.3,66.0,76.8,67.6,62.9,90,70,42,30.07,29.89,5,1,0,0.06
2013-6-24,97.2,80.9,66.4,73.7,67.9,63.1,90,67,43,30.00,29.83,4,1,0,0.00
2013-6-25,91.4,77.2,65.5,73.3,67.9,62.5,91,75,52,29.88,29.70,5,1,0,0.04
2013-6-26,90.0,75.0,66.7,70.6,67.6,65.2,95,79,51,29.76,29.68,4,0,0,0.03
2013-6-27,87.1,71.8,64.8,72.8,67.8,62.7,97,88,59,29.71,29.43,2,0,0,1.25
2013-6-28,80.1,69.5,64.2,73.2,67.4,63.0,98,93,73,29.46,29.35,3,0,0,0.11
2013-6-29,89.4,72.6,62.4,67.6,64.3,61.5,97,78,44,29.59,29.38,4,1,0,0.00
2013-6-30,96.8,75.1,62.2,71.9,67.0,60.4,95,78,45,29.77,29.59,4,1,0,0.00
2013-7-1,81.5,72.7,67.5,76.3,70.8,66.3,97,94,77,29.87,29.74,2,0,0,0.40
2013-7-2,87.3,76.7,70.0,77.6,72.6,69.1,97,88,65,30.01,29.86,4,1,0,0.22
2013-7-3,91.0,78.3,70.3,75.4,72.2,69.1,97,83,59,30.10,30.00,3,1,0,0.00
2013-7-4,98.2,81.8,71.8,76.3,72.7,70.3,96,76,44,30.10,29.99,4,1,0,0.00
2013-7-5,94.3,81.9,70.7,75.8,73.0,68.9,94,76,51,30.07,29.95,3,1,0,0.00
2013-7-6,98.8,81.7,72.7,74.5,72.5,70.9,95,76,43,30.06,29.89,3,1,0,0.00
2013-7-7,94.8,78.4,69.6,74.6,70.8,68.1,95,80,47,29.95,29.81,5,1,0,0.26
2013-7-8,86.2,74.5,67.8,71.6,68.6,66.6,96,83,58,29.96,29.88,3,0,0,0.00
2013-7-9,86.9,74.2,68.2,74.5,70.1,66.4,95,88,60,29.99,29.86,3,0,0,0.14
2013-7-10,93.4,77.2,68.4,74.9,71.6,66.5,97,84,55,29.88,29.68,4,0,0,0.67
2013-7-11,88.0,74.8,66.9,68.9,63.8,58.5,98,73,39,29.86,29.71,4,1,0,0.00
2013-7-12,83.8,71.8,65.3,68.3,64.0,60.0,96,77,57,30.00,29.85,3,0,0,0.02
2013-7-13,89.4,74.8,67.3,73.1,69.4,66.6,98,85,53,30.16,29.98,5,0,0,0.12
2013-7-14,96.6,80.2,69.1,75.2,70.9,68.1,98,76,42,30.23,30.13,4,0,0,0.00
2013-7-15,102.7,81.4,68.9,75.3,71.3,67.7,96,75,39,30.21,30.05,4,0,0,0.00
2013-7-16,101.5,83.2,71.8,73.9,71.1,67.3,96,71,36,30.18,30.04,3,0,0,0.00
2013-7-17,99.1,82.8,68.9,75.5,71.6,66.5,93,72,45,30.15,29.95,4,1,0,0.00
2013-7-18,101.7,83.5,72.3,76.0,72.3,67.2,92,72,39,30.01,29.86,5,1,0,0.04
2013-7-19,99.5,82.9,70.0,76.1,71.4,68.2,95,72,41,29.92,29.67,5,1,0,0.00
2013-7-20,93.7,82.1,74.8,72.8,69.9,66.0,87,68,43,29.75,29.65,4,1,0,0.00
2013-7-21,94.1,78.3,67.1,68.9,65.4,59.9,91,68,34,29.86,29.75,3,0,0,0.00
2013-7-22,90.5,75.6,68.0,72.7,69.0,65.0,96,81,52,29.85,29.67,2,0,0,0.69
2013-7-23,93.4,76.1,70.7,73.3,69.8,62.5,98,83,43,29.66,29.49,3,1,0,0.35
2013-7-24,79.5,70.8,59.9,63.7,57.8,50.5,86,65,42,29.90,29.58,5,1,0,0.00
2013-7-25,83.1,66.5,52.7,57.8,53.6,48.9,88,65,42,29.97,29.90,4,1,0,0.00
2013-7-26,91.0,69.7,55.9,58.1,55.4,52.4,91,64,32,30.01,29.90,3,1,0,0.00
2013-7-27,83.1,68.5,56.1,69.7,62.7,53.5,97,83,61,29.94,29.79,2,0,0,0.33
2013-7-28,89.2,72.0,63.3,71.4,66.8,61.8,98,85,48,29.86,29.76,3,0,0,0.47
2013-7-29,82.0,68.2,57.0,61.9,56.6,52.3,94,70,39,30.05,29.86,5,1,0,0.00
2013-7-30,81.0,67.8,55.4,60.4,56.8,52.8,92,71,44,30.13,30.03,3,1,0,0.00
2013-7-31,86.7,71.8,57.9,63.4,60.0,55.3,92,70,41,30.08,29.89,2,0,0,0.00
2013-8-1,84.0,73.2,66.0,71.4,66.6,63.0,92,80,63,29.88,29.68,4,0,0,0.11
2013-8-2,83.3,70.7,61.7,64.3,60.3,55.2,92,72,46,29.84,29.75,4,0,0,0.00
2013-8-3,85.6,70.2,62.1,68.4,61.5,54.0,94,76,40,29.83,29.74,4,0,0,0.13
2013-8-4,78.3,66.7,55.4,58.6,55.3,52.6,92,69,43,29.94,29.82,4,1,0,0.00
2013-8-5,79.3,65.0,53.1,57.2,53.3,49.6,92,69,37,30.02,29.92,4,1,0,0.00
2013-8-6,84.2,68.4,55.2,62.5,57.8,52.5,91,71,45,29.99,29.93,5,1,0,0.00
2013-8-7,74.7,70.4,66.9,68.5,65.2,60.1,92,84,74,29.99,29.88,2,0,0,0.00
2013-8-8,90.1,73.4,62.2,73.3,67.7,60.1,95,83,58,29.93,29.82,4,0,0,0.00
2013-8-9,85.1,76.0,70.9,76.7,72.3,68.5,98,89,67,29.83,29.71,5,0,0,0.65
2013-8-10,84.9,73.0,63.0,68.6,61.8,56.0,94,71,38,29.98,29.82,3,1,0,0.00
2013-8-11,83.7,67.8,58.8,63.9,58.8,55.4,90,75,45,30.05,29.91,3,0,0,0.00
2013-8-12,64.2,63.7,63.3,60.9,60.7,60.3,90,90,89,29.94,29.94,0,0,0,0.00
2013-8-13,69.8,66.8,63.9,55.3,52.5,50.6,62,60,58,29.75,29.70,3,1,0,0.00
2013-8-14,75.6,66.5,54.7,52.9,50.9,48.7,85,58,43,29.99,29.76,5,1,0,0.00
2013-8-15,80.1,62.0,47.7,54.5,50.1,45.2,92,69,35,30.09,29.98,3,0,0,0.00
2013-8-16,85.3,65.8,52.0,57.0,52.9,49.5,91,68,32,30.11,30.04,3,0,0,0.00
2013-8-17,85.1,67.5,53.4,60.2,54.8,50.4,91,68,33,30.22,30.12,2,0,0,0.00
2013-8-18,79.0,67.3,60.1,62.6,58.7,56.8,89,76,52,30.18,30.06,2,0,0,0.00
2013-8-19,85.8,68.6,59.5,64.3,60.3,56.6,90,77,44,30.07,29.94,3,0,0,0.00
2013-8-20,89.6,71.6,59.9,66.3,60.2,55.3,92,72,33,30.08,29.98,5,0,0,0.00
2013-8-21,91.9,72.4,57.2,67.2,61.9,54.6,92,73,41,30.12,29.94,3,0,0,0.00
2013-8-22,90.3,75.3,65.5,70.0,65.9,62.4,94,75,45,29.96,29.76,9,1,0,0.41
2013-8-23,68.0,66.0,65.5,66.2,64.3,63.9,95,94,94,29.93,29.84,1,0,0,0.01
2013-8-24,68.5,63.4,59.7,57.6,56.7,55.2,85,79,68,30.24,30.22,0,0,0,0.00
2013-8-25,86.4,68.5,52.7,60.4,55.8,49.8,90,68,38,30.32,30.10,3,1,0,0.00
2013-8-26,78.4,72.0,67.5,68.0,64.9,59.5,89,79,63,30.12,29.84,3,0,0,0.02
2013-8-27,87.3,75.8,66.2,70.9,67.8,63.4,93,78,55,29.85,29.74,4,0,0,0.00
2013-8-28,81.0,73.3,68.9,74.0,69.6,65.9,96,88,74,29.79,29.71,2,0,0,0.06
2013-8-29,91.6,75.6,65.8,70.8,68.0,63.7,95,79,47,29.91,29.77,3,0,0,0.00
2013-8-30,93.9,75.0,64.8,73.0,67.0,62.1,92,78,47,29.91,29.69,3,0,0,0.00
2013-8-31,91.4,78.7,69.4,73.5,69.8,65.7,89,75,55,29.73,29.63,3,0,0,0.01
2013-9-1,89.6,77.6,70.0,73.3,70.5,67.9,93,80,55,29.74,29.64,3,0,0,0.00
2013-9-2,90.7,77.2,67.5,73.2,67.6,61.3,92,74,51,29.69,29.54,3,0,0,0.02
2013-9-3,78.8,71.7,64.2,64.1,58.4,52.6,84,64,42,29.85,29.63,4,2,0,0.00
2013-9-4,84.6,69.6,56.8,58.4,55.9,53.0,88,65,37,29.96,29.85,5,1,0,0.00
2013-9-5,79.3,67.1,57.2,60.0,50.1,41.0,86,59,26,30.11,29.88,5,1,0,0.00
2013-9-6,78.6,59.2,44.1,45.8,42.7,40.0,86,59,26,30.21,30.04,3,0,0,0.00
2013-9-7,80.4,63.2,45.5,59.0,49.2,41.6,87,64,35,30.06,29.80,3,0,0,0.00
2013-9-8,78.6,67.2,55.6,63.4,54.7,43.2,86,66,39,30.03,29.77,5,1,0,0.00
2013-9-9,80.2,60.3,42.8,59.1,48.5,38.9,87,67,42,30.15,30.01,5,0,0,0.02
2013-9-10,95.2,75.6,61.2,72.8,66.4,58.2,93,76,48,30.05,29.90,4,0,0,0.01
2013-9-11,95.0,76.4,68.7,77.4,70.3,66.2,95,83,54,30.02,29.87,3,0,0,0.55
2013-9-12,83.1,71.8,68.7,75.8,69.5,66.3,97,93,76,29.89,29.62,2,0,0,0.18
2013-9-13,70.5,62.6,55.9,51.6,48.7,45.7,74,61,47,29.86,29.68,5,2,0,0.00
2013-9-14,65.1,54.8,46.0,49.7,45.8,42.4,91,73,47,30.07,29.86,4,1,0,0.04
2013-9-15,73.0,55.5,43.0,54.4,47.5,40.0,92,77,42,30.15,29.96,3,0,0,0.00
2013-9-16,70.3,60.5,51.6,57.1,51.7,40.2,93,74,52,30.25,29.95,4,1,0,0.03
2013-9-17,70.5,53.5,39.4,47.0,40.8,35.9,89,65,35,30.38,30.21,4,0,0,0.00
2013-9-18,75.0,55.2,41.5,47.6,43.4,38.5,90,69,34,30.25,30.05,3,0,0,0.00
2013-9-19,80.6,58.6,42.6,56.9,48.8,39.6,91,73,41,30.09,29.95,3,0,0,0.00
2013-9-20,84.0,64.5,49.8,61.0,54.2,47.0,92,72,41,29.99,29.81,4,0,0,0.00
2013-9-21,68.9,63.2,59.0,62.4,58.3,54.2,92,84,76,29.83,29.56,2,0,0,0.24
2013-9-22,66.2,58.7,50.0,57.2,48.1,41.6,94,70,43,29.89,29.61,6,1,0,0.00
2013-9-23,66.2,55.3,45.1,43.9,41.8,38.5,85,62,42,30.01,29.90,4,1,0,0.00
2013-9-24,74.8,54.8,41.7,48.7,43.8,38.1,89,70,35,30.03,29.83,4,0,0,0.00
2013-9-25,76.5,56.3,43.2,52.3,46.2,40.0,89,72,39,29.91,29.78,3,0,0,0.00
2013-9-26,76.5,58.6,45.7,52.6,48.3,42.4,88,72,42,30.00,29.87,4,0,0,0.00
2013-9-27,76.6,61.5,52.0,54.3,50.8,48.3,88,71,42,30.16,30.00,3,0,0,0.00
2013-9-28,73.9,59.0,47.8,55.3,50.3,44.7,91,75,47,30.24,30.13,3,0,0,0.00
2013-9-29,76.6,57.2,43.0,52.6,47.6,40.3,92,73,40,30.13,29.95,4,0,0,0.00
2013-9-30,77.9,58.6,45.5,55.4,49.7,42.4,89,75,43,30.00,29.84,2,0,0,0.00
2013-10-1,80.1,63.3,51.6,60.4,53.2,48.4,89,72,40,29.96,29.83,3,1,0,0.00
2013-10-2,83.7,65.2,49.6,63.1,55.9,46.5,90,74,48,29.96,29.86,3,1,0,0.00
2013-10-3,83.7,66.4,52.3,62.4,57.1,49.5,90,74,46,30.05,29.91,2,0,0,0.00
2013-10-4,81.7,70.3,62.1,68.2,63.8,58.2,91,81,61,29.99,29.88,4,0,0,0.01
2013-10-5,85.1,72.1,65.8,68.6,66.0,64.3,95,83,55,30.00,29.88,2,0,0,0.00
2013-10-6,83.3,72.4,63.7,70.0,65.9,61.9,97,81,58,29.91,29.78,4,0,0,0.14
2013-10-7,72.9,63.7,48.7,66.9,57.4,43.3,94,81,56,29.94,29.57,4,1,0,1.05
2013-10-8,70.7,54.8,41.9,48.4,43.0,38.0,92,69,31,30.25,29.94,4,0,0,0.00
2013-10-9,68.9,53.2,41.5,46.0,41.8,38.2,89,69,35,30.32,30.19,4,0,0,0.00
2013-10-10,62.2,51.9,44.1,52.1,45.3,40.5,90,79,53,30.21,30.03,3,0,0,0.41
2013-10-11,67.1,56.9,50.7,55.3,51.5,48.2,93,83,64,30.02,29.93,4,1,0,0.29
2013-10-12,78.8,61.6,51.8,52.5,45.4,34.6,86,61,21,30.14,29.99,3,0,0,0.00
2013-10-13,72.5,60.6,51.6,51.8,49.2,44.6,85,67,44,30.24,30.14,2,0,0,0.00
2013-10-14,67.3,58.2,51.1,54.5,51.0,47.1,86,77,61,30.26,30.14,3,0,0,0.00
2013-10-15,75.2,60.7,48.7,56.0,51.5,45.9,94,74,48,30.17,29.97,3,0,0,0.00
2013-10-16,64.0,58.5,53.2,56.1,50.6,43.0,83,75,63,29.97,29.77,2,0,0,0.00
2013-10-17,74.3,63.3,56.8,60.5,55.5,51.5,94,77,47,29.81,29.51,4,0,0,0.65
2013-10-18,62.8,54.3,42.3,53.3,44.2,38.7,88,70,43,29.90,29.66,9,2,0,0.00
2013-10-19,59.9,47.3,36.3,49.8,42.7,33.4,95,85,60,29.90,29.61,5,0,0,0.01
2013-10-20,60.3,49.9,39.9,41.1,38.3,35.8,85,66,41,29.95,29.71,5,1,0,0.01
2013-10-21,68.4,49.4,33.8,41.1,36.9,30.9,91,66,35,30.04,29.80,4,0,0,0.00
2013-10-22,62.1,52.3,41.2,45.2,37.3,27.1,79,59,31,29.80,29.67,7,1,0,0.00
2013-10-23,50.0,42.5,36.9,36.7,34.0,31.4,84,72,51,29.74,29.58,4,1,0,0.00
2013-10-24,48.7,40.6,33.4,33.9,29.9,26.0,87,68,42,29.95,29.72,7,2,0,0.00
2013-10-25,52.2,42.4,31.5,38.4,31.9,27.8,86,67,47,30.14,29.95,7,1,0,0.00
2013-10-26,55.4,41.7,26.2,32.2,27.1,23.1,88,60,32,30.13,29.76,9,1,0,0.00
2013-10-27,54.5,46.1,34.2,34.2,31.3,28.7,80,57,41,30.02,29.77,9,2,0,0.00
2013-10-28,60.1,42.3,28.2,36.9,31.5,24.8,87,68,40,30.23,30.02,3,0,0,0.00
2013-10-29,56.1,44.2,34.2,35.7,32.8,29.3,83,66,42,30.34,30.22,3,0,0,0.00
2013-10-30,64.2,46.7,34.9,45.5,37.5,30.9,86,72,44,30.22,30.01,2,0,0,0.00
2013-10-31,59.7,54.5,43.5,59.1,51.9,39.0,98,91,82,30.07,29.55,4,0,0,0.25
2013-11-1,70.0,60.2,46.2,60.2,50.8,40.5,98,75,36,29.57,29.31,9,2,0,0.11
2013-11-2,57.2,47.3,40.1,45.0,41.5,37.5,92,81,53,29.74,29.54,3,0,0,0.00
2013-11-3,48.6,40.8,28.8,39.9,26.7,18.5,76,58,36,30.42,29.75,5,2,0,0.00
2013-11-4,45.3,33.2,22.3,24.0,20.4,17.2,85,62,35,30.58,30.42,4,0,0,0.00
2013-11-5,53.8,43.1,31.6,38.2,31.6,21.1,80,64,52,30.53,30.34,3,0,0,0.00
2013-11-6,64.9,53.1,43.5,50.0,45.0,38.1,83,74,56,30.34,29.85,4,1,0,0.00
2013-11-7,57.7,49.5,37.9,53.3,43.8,28.1,99,81,66,29.91,29.73,5,1,0,0.35
2013-11-8,47.3,41.4,36.9,32.1,28.4,25.5,66,60,45,30.15,29.90,5,2,0,0.00
2013-11-9,50.9,41.6,30.6,29.9,28.3,25.8,83,60,42,30.21,29.81,3,0,0,0.00
2013-11-10,50.7,42.8,31.6,36.6,30.4,26.9,85,62,46,30.05,29.77,8,2,0,0.00
2013-11-11,49.5,41.2,27.7,34.0,29.8,23.8,87,65,48,30.13,29.87,4,1,0,0.00
2013-11-12,46.6,33.6,27.5,36.4,19.7,11.3,83,58,34,30.28,29.89,6,2,0,0.00
2013-11-13,40.1,30.6,24.6,20.0,16.0,10.9,74,55,40,30.35,30.19,6,2,0,0.00
2013-11-14,51.1,34.1,21.9,19.7,17.2,12.5,82,55,21,30.18,30.05,6,1,0,0.00
2013-11-15,52.0,34.7,21.9,29.6,22.5,17.3,83,64,32,30.16,30.04,3,0,0,0.00
2013-11-16,61.5,44.7,29.8,43.8,34.8,25.9,87,70,45,30.22,30.09,3,0,0,0.00
2013-11-17,59.7,52.3,47.3,57.2,50.4,43.8,97,94,83,30.09,29.48,5,1,0,0.07
2013-11-18,59.5,53.0,43.3,57.7,36.5,25.4,94,56,34,29.80,29.43,9,4,0,0.09
2013-11-19,44.6,38.0,26.2,28.6,22.5,19.1,77,54,42,30.32,29.81,8,3,0,0.00
2013-11-20,49.1,31.9,23.0,23.4,16.8,0.9,83,59,14,30.48,30.33,4,0,0,0.00
2013-11-21,44.8,34.5,20.5,32.3,23.7,14.3,78,65,47,30.49,30.25,4,0,0,0.00
2013-11-22,46.8,43.2,39.7,44.1,40.2,32.3,96,89,73,30.25,29.89,4,0,0,0.07
2013-11-23,43.7,34.4,23.7,35.3,20.8,3.3,77,58,39,30.06,29.86,9,4,0,0.00
2013-11-24,29.1,22.5,18.7,12.8,3.9,-2.0,67,45,27,30.34,30.05,12,4,0,0.00
2013-11-25,32.5,24.7,13.3,13.4,10.3,8.2,84,57,37,30.39,30.16,5,1,0,0.00
2013-11-26,33.8,31.2,27.7,31.9,26.3,9.7,97,83,39,30.18,29.54,2,0,0,2.60
2013-11-27,37.2,34.1,27.7,34.4,28.4,16.6,98,80,58,29.80,29.41,8,3,0,1.59
2013-11-28,33.6,28.1,23.4,20.0,17.5,14.0,77,64,52,30.36,29.81,6,2,0,0.00
2013-11-29,35.2,27.2,17.8,22.3,18.1,13.5,85,69,47,30.65,30.34,6,1,0,0.00
2013-11-30,35.2,23.8,13.3,19.9,14.9,9.4,85,71,41,30.66,30.26,3,1,0,0.00
2013-12-1,33.4,28.1,18.3,26.2,21.6,14.8,87,77,65,30.26,29.93,2,0,0,0.00
2013-12-2,43.0,34.1,28.8,31.2,28.5,25.7,89,80,61,29.92,29.77,0,0,0,0.01
2013-12-3,47.7,37.0,29.1,37.3,32.1,27.3,94,83,61,29.91,29.79,3,0,0,0.00
2013-12-4,51.3,37.5,28.6,39.5,33.3,27.1,97,85,61,30.01,29.91,3,0,0,0.00
2013-12-5,53.6,49.0,42.6,51.9,47.5,38.1,99,95,84,29.95,29.78,2,0,0,0.36
2013-12-6,51.1,40.4,31.5,50.8,37.1,30.1,99,89,59,30.11,29.77,6,1,0,0.49
2013-12-7,36.7,31.2,24.6,31.8,25.3,14.2,97,80,56,30.48,30.10,6,1,0,0.09
2013-12-8,30.9,24.5,17.6,24.8,18.7,14.0,91,79,59,30.50,30.23,3,1,0,0.00
2013-12-9,33.8,30.7,27.1,32.3,29.3,24.8,98,94,91,30.22,29.88,3,0,0,0.02
2013-12-10,32.5,29.1,21.0,30.5,22.2,10.9,97,76,54,30.04,29.83,6,2,0,0.00
2013-12-11,32.7,25.2,18.5,15.7,12.7,9.7,85,60,40,30.23,30.04,8,3,0,0.00
2013-12-12,26.2,19.9,15.3,16.3,7.1,2.5,87,58,40,30.30,30.05,7,2,0,0.00
2013-12-13,33.1,27.1,17.2,18.7,11.2,2.8,66,51,45,30.22,30.03,6,2,0,0.00
2013-12-14,29.1,25.5,22.8,25.2,19.7,12.8,91,79,64,30.29,29.71,4,1,0,0.00
2013-12-15,37.2,29.6,25.9,30.4,23.8,16.6,93,80,58,29.78,29.50,7,1,0,0.08
2013-12-16,26.8,19.2,7.0,15.6,8.3,3.2,85,63,46,30.11,29.79,7,2,0,0.00
2013-12-17,29.5,19.1,7.9,21.6,14.7,4.1,90,83,72,30.09,29.86,3,0,0,0.00
2013-12-18,34.3,23.7,12.2,22.7,16.9,9.3,90,76,58,30.07,29.89,6,1,0,0.00
2013-12-19,41.0,26.0,13.5,24.7,19.1,10.6,89,76,47,30.04,29.92,2,0,0,0.04
2013-12-20,39.4,33.1,26.2,32.6,28.5,22.9,90,83,74,29.98,29.84,0,0,0,0.24
2013-12-21,45.3,38.6,34.7,41.0,36.2,32.1,99,91,70,29.85,29.72,5,0,0,0.34
2013-12-22,58.5,49.8,37.9,58.2,49.3,37.6,99,98,94,29.81,29.57,4,0,0,0.03
2013-12-23,48.6,43.8,32.5,48.3,39.6,21.3,99,86,62,30.12,29.80,6,1,0,0.09
2013-12-24,36.3,28.0,19.9,26.0,19.7,10.7,89,72,51,30.34,30.04,10,2,0,0.00
2013-12-25,25.5,20.0,12.6,13.8,8.2,4.0,71,60,48,30.47,30.24,4,1,0,0.00
2013-12-26,33.1,26.6,20.5,26.4,21.4,13.8,89,81,60,30.24,30.07,3,0,0,0.00
2013-12-27,36.3,25.8,15.6,24.6,20.1,12.9,90,80,56,30.26,30.17,2,0,0,0.00
2013-12-28,46.8,29.5,17.8,31.0,23.6,15.4,90,80,51,30.16,29.97,3,0,0,0.09
2013-12-29,36.9,32.9,28.4,36.1,31.4,25.8,97,94,90,29.96,29.49,4,0,0,1.01
2013-12-30,38.8,31.7,24.3,36.1,22.8,10.8,97,71,49,30.08,29.65,6,2,0,0.01
2013-12-31,30.7,24.3,19.9,22.9,13.1,7.2,79,62,50,30.20,29.94,8,2,0,0.00
2014-1-1,29.3,22.1,14.7,21.4,16.0,9.8,88,77,62,30.31,30.07,3,0,0,0.00
2014-1-2,27.7,24.1,14.4,22.6,20.0,10.7,90,84,75,30.07,29.66,4,1,0,0.00